Theta_e
341 331 323 319 310 311 308 314 324 320 320 329 332 327 323 325 323 323 352 352 351 356 358 360 361 362 361 361 361 360 361 361 360 360 361 361 361 361 361 362 363 361 359 357 357 357 357 357 357
333 322 320 313 307 305 309 314 318 321 326 331 331 329 328 323 341 345 347 354 354 358 358 354 362 362 361 361 361 360 361 361 360 360 360 360 360 360 360 360 360 357 356 356 355 355 355 355 354
320 318 317 311 307 304 307 310 316 323 328 328 326 329 332 332 344 347 351 355 355 358 358 358 362 362 361 359 359 361 361 361 361 361 361 360 359 359 358 358 357 355 354 354 354 354 354 353 353
316 315 312 306 304 306 308 317 322 323 326 329 327 326 340 347 346 350 355 357 355 356 358 362 362 362 362 360 359 360 360 361 361 361 361 360 359 358 357 356 355 354 353 353 353 352 352 351 351
316 314 307 304 304 306 309 312 320 323 324 328 327 324 335 344 350 354 354 356 354 356 357 359 362 362 361 359 358 360 360 361 362 361 360 359 358 357 356 354 352 351 351 351 351 353 354 354 354
310 311 304 303 304 306 310 314 321 323 322 327 325 329 336 348 350 352 353 354 354 354 357 360 362 362 361 361 360 360 360 361 361 361 360 359 358 356 355 353 353 352 353 355 356 356 358 357 357
308 306 304 303 304 305 309 321 319 322 321 323 329 324 338 344 351 353 352 352 353 354 356 359 359 361 361 361 360 360 359 359 360 359 358 358 356 355 354 354 354 356 356 357 357 358 359 358 358
311 308 301 302 303 306 311 320 324 323 321 327 330 321 329 343 351 352 351 350 351 352 354 356 359 358 356 356 360 360 359 359 359 358 357 357 355 354 355 355 355 355 355 356 357 356 354 354 353
308 304 302 304 303 307 313 317 312 320 318 323 330 335 340 346 348 346 346 346 347 349 351 355 356 358 355 351 354 358 358 357 358 357 356 354 353 354 354 355 355 356 352 351 345 342 343 345 345
307 303 303 307 309 308 313 310 310 310 312 318 324 340 342 343 343 340 339 340 343 344 348 351 356 356 354 350 354 354 356 356 356 354 355 351 354 357 355 350 347 342 338 337 337 337 339 342 338
306 303 306 307 308 311 309 308 311 310 310 318 319 336 339 340 340 338 337 339 341 348 346 348 351 355 353 352 355 355 354 354 353 354 355 355 356 358 342 343 339 338 335 335 336 337 336 336 336
302 305 307 308 309 308 307 309 309 310 314 315 322 340 341 338 337 336 336 337 340 344 348 351 353 355 355 354 352 352 349 349 350 353 347 349 344 340 337 336 335 335 334 335 335 334 335 334 334
302 304 305 308 309 308 308 307 307 308 313 314 326 342 339 339 338 338 338 337 337 338 343 348 351 353 353 353 350 349 349 353 352 341 340 340 338 337 335 333 331 331 333 332 332 331 331 329 329
304 303 304 306 306 307 305 307 307 311 315 313 330 339 341 340 338 339 337 334 336 338 340 345 347 350 350 349 350 349 353 345 342 338 337 337 336 336 332 330 330 331 332 331 328 328 329 328 327
302 300 303 303 305 304 307 303 304 310 313 314 324 335 340 342 341 339 338 335 337 338 340 343 345 347 349 349 350 353 350 339 338 335 334 334 335 335 332 329 329 329 330 329 330 329 328 325 324
299 299 296 302 303 304 305 299 308 311 311 316 317 328 338 340 342 342 340 338 339 339 340 343 342 345 348 349 350 351 343 338 336 333 331 331 332 333 332 328 327 328 329 327 326 326 324 322 323
297 294 295 298 302 303 303 301 307 309 312 310 315 324 336 340 341 344 343 339 340 342 342 342 344 344 347 350 350 349 341 336 333 332 330 331 329 330 330 327 327 328 325 325 324 325 325 322 323
293 293 295 296 300 301 300 300 305 307 312 313 317 327 336 339 341 344 345 344 344 343 345 346 347 348 349 347 348 342 334 332 332 330 330 330 328 328 328 326 327 326 324 323 324 325 325 324 323
297 295 295 297 300 298 300 300 303 306 307 311 317 320 329 338 343 347 347 346 345 344 346 348 347 349 344 341 342 338 331 329 329 329 330 329 328 328 329 326 326 327 326 326 326 323 324 321 324
296 295 295 298 299 298 299 298 302 304 305 308 314 318 322 333 340 343 347 347 345 346 347 347 345 343 343 344 345 342 334 329 329 329 329 329 328 328 328 328 327 328 326 327 326 326 320 321 324
295 294 295 295 298 298 297 297 300 304 306 308 310 313 318 323 332 338 343 347 346 345 346 346 345 342 343 344 339 332 330 328 326 327 326 327 328 327 329 329 328 328 327 324 326 325 324 318 322
293 297 297 296 295 291 298 290 298 301 302 305 308 311 314 321 324 334 340 344 343 342 345 346 343 340 342 340 338 336 331 326 326 326 326 326 328 327 328 328 329 329 327 328 325 326 324 323 318
296 299 297 297 295 293 295 292 297 299 300 304 307 309 313 317 322 328 337 340 342 343 342 343 342 339 341 335 338 336 335 330 328 327 329 329 329 328 327 329 329 329 327 328 328 327 325 323 320
300 297 296 295 295 289 295 293 294 298 301 304 308 309 311 314 319 325 337 339 339 341 341 343 340 337 336 336 337 336 336 332 327 327 325 324 325 327 328 328 329 330 329 328 327 327 326 325 324
299 296 289 287 287 287 296 292 296 302 303 304 306 306 308 309 314 318 324 334 337 337 339 340 339 335 332 332 333 334 336 334 332 330 326 326 324 325 328 329 329 328 329 328 328 327 326 325 324
298 297 290 283 285 288 293 290 297 304 308 309 310 311 312 312 312 313 322 330 336 336 337 336 333 337 332 331 330 331 335 330 330 331 328 325 325 328 331 330 330 329 327 327 328 325 325 326 325
296 293 297 293 292 289 292 296 299 307 306 307 309 311 311 313 314 315 313 323 334 336 336 333 329 334 332 331 329 330 332 332 330 332 334 329 333 329 330 328 327 327 327 327 327 325 325 326 326
296 296 292 293 286 284 290 292 295 300 301 304 305 306 309 313 315 316 317 316 324 336 338 334 331 331 331 331 332 332 331 332 332 332 331 331 331 329 328 327 328 327 328 327 327 325 324 325 324
292 293 292 293 292 288 286 291 301 300 301 301 303 306 307 310 313 317 318 318 316 325 335 335 331 329 331 330 327 327 328 330 331 331 332 330 331 329 327 327 327 327 327 327 327 326 323 322 323
290 287 288 289 289 291 291 292 298 299 301 303 302 304 307 309 313 317 319 320 318 315 330 334 332 329 330 330 329 328 327 330 331 332 332 332 330 329 328 328 327 327 327 327 326 324 322 321 320
Wind_Speed
8 6 2 2 4 3 3 3 2 6 3 3 10 5 12 5 8 1 2 13 15 20 18 18 17 17 16 16 15 14 12 11 12 12 11 11 10 10 10 10 9 9 9 8 7 8 8 8 9
7 4 2 1 4 3 2 2 8 8 3 7 5 4 5 10 1 6 11 9 17 18 17 16 16 16 16 16 16 14 13 12 12 11 11 10 10 9 9 8 8 7 7 6 6 7 8 8 8
5 1 2 0 1 5 2 4 7 4 8 7 5 3 4 2 4 7 5 15 16 15 16 15 15 15 15 16 16 15 13 12 11 11 11 10 9 8 8 7 6 6 5 5 6 7 8 8 8
2 3 3 4 7 4 4 3 4 3 5 6 4 4 3 1 3 8 16 17 18 15 14 16 14 14 14 16 16 15 14 11 11 11 10 10 9 7 7 6 6 5 6 6 7 8 8 8 7
2 1 3 4 5 5 7 5 8 6 3 8 9 5 2 2 6 13 15 16 18 16 13 15 13 13 14 15 15 14 13 11 10 9 10 9 8 7 6 5 5 6 6 7 8 8 8 7 7
3 1 4 9 7 4 8 5 6 11 4 8 7 6 4 6 12 15 14 16 16 16 14 12 12 11 12 14 13 13 12 11 10 9 8 7 7 6 5 5 5 6 6 6 7 7 7 7 7
3 4 7 6 5 5 7 0 5 7 6 6 1 4 4 11 11 17 15 14 14 13 13 12 13 13 12 12 13 12 12 11 10 9 8 7 6 6 5 5 4 4 4 5 6 7 7 8 7
2 3 5 6 8 9 2 2 1 8 8 2 6 6 6 15 17 16 16 13 12 12 13 12 11 13 12 12 13 12 11 11 10 9 7 6 6 5 5 3 3 3 4 5 6 7 7 7 7
3 5 9 11 10 6 4 4 1 2 6 5 4 3 2 21 20 16 19 10 8 8 10 11 12 12 11 12 11 11 12 11 9 9 7 7 5 5 5 6 3 5 7 8 9 9 8 5 5
6 6 10 5 8 7 5 3 0 4 6 8 7 9 14 18 19 20 19 15 11 11 10 10 11 11 11 9 11 9 9 8 7 7 7 5 5 4 5 7 10 10 8 8 9 9 5 4 4
7 14 9 7 10 4 4 5 5 3 10 8 8 7 14 16 15 16 17 18 15 13 9 8 10 10 12 10 8 6 5 6 6 8 6 5 4 4 4 4 4 3 5 4 4 5 5 7 6
8 10 10 5 4 5 7 5 7 8 11 7 10 11 15 16 18 20 18 18 17 14 13 12 12 11 11 8 8 8 7 6 6 6 6 5 4 4 4 3 4 3 3 4 4 4 5 6 6
11 9 5 12 14 13 14 16 11 15 16 5 5 17 18 18 17 15 17 17 18 15 14 13 13 13 11 10 8 8 8 7 7 7 6 5 6 5 4 4 4 3 3 4 4 4 5 5 6
3 8 13 12 16 11 12 18 8 17 13 3 7 16 17 20 22 16 16 16 18 16 16 15 14 12 11 9 10 8 8 7 7 6 6 6 5 5 5 4 4 4 3 4 4 4 4 5 5
3 8 9 10 9 9 10 17 12 20 11 5 9 13 15 18 17 22 22 18 19 16 16 16 14 12 11 10 9 8 7 7 7 6 7 7 6 6 6 5 4 4 3 4 3 3 4 5 5
3 3 9 4 8 8 14 21 14 18 7 22 17 11 12 15 22 18 17 17 19 17 15 14 13 14 13 11 10 7 7 6 6 6 6 8 8 8 6 5 5 4 4 3 4 4 4 6 5
3 8 7 5 3 2 12 10 8 10 15 19 21 15 11 12 14 17 18 17 17 18 18 18 16 15 14 11 9 8 8 6 6 6 6 8 8 8 6 6 6 5 4 4 4 4 6 7 6
9 8 5 6 3 1 4 9 11 14 14 17 22 14 13 14 19 18 17 17 17 18 15 15 13 15 14 11 8 7 7 5 6 6 6 9 7 8 7 7 6 5 5 5 4 6 6 7 6
9 7 9 3 5 6 10 10 14 14 13 16 21 20 12 15 16 16 16 16 16 16 18 18 17 15 11 10 11 9 9 7 7 6 9 9 9 9 8 7 6 5 6 6 5 5 8 8 8
10 11 10 9 9 7 10 12 14 16 14 15 16 17 20 15 15 17 18 20 20 19 19 19 17 14 13 9 8 7 10 7 7 7 7 8 9 9 8 8 6 5 6 6 7 6 5 7 9
11 13 9 11 9 5 9 17 14 14 14 16 19 21 21 22 18 18 21 22 21 21 22 18 20 19 15 13 8 7 7 6 7 8 7 8 9 9 9 8 6 6 4 6 6 7 8 6 6
13 13 14 12 8 10 3 9 7 7 10 12 18 19 21 22 16 18 20 18 19 21 18 22 19 16 16 16 13 14 14 12 8 9 8 8 10 10 9 8 7 5 5 6 6 6 6 5 6
13 12 15 13 9 5 11 8 6 5 11 14 16 18 19 20 16 18 20 20 24 16 18 18 20 21 20 19 17 13 14 11 10 9 11 9 9 9 9 8 7 6 4 6 6 6 6 5 5
4 5 3 2 5 11 13 10 10 9 8 9 10 14 14 15 15 18 18 18 16 18 19 21 23 22 19 20 19 19 17 14 12 12 11 9 8 8 9 8 7 6 6 6 5 5 5 5 4
10 7 7 8 9 16 5 9 15 10 8 7 11 13 11 9 12 15 18 20 18 21 24 21 23 22 21 21 20 19 18 16 16 15 12 13 10 9 10 9 8 7 6 6 5 5 5 4 3
5 11 10 13 13 14 4 11 6 6 8 8 8 11 10 10 11 12 15 17 20 22 22 22 22 23 22 22 21 18 17 12 12 14 12 12 11 10 12 9 9 9 8 6 5 4 3 3 3
3 7 6 9 3 8 9 13 9 10 15 16 16 15 17 16 13 13 12 15 17 18 21 22 22 22 21 22 18 19 17 17 14 15 13 11 10 10 12 11 10 10 8 7 6 4 4 2 1
3 4 4 5 12 15 10 10 2 10 13 14 15 16 17 17 17 13 13 12 15 18 18 18 19 23 25 21 15 13 17 17 14 14 14 13 11 13 13 12 11 10 8 7 5 5 4 2 0
3 2 1 3 5 10 13 8 3 6 9 11 13 15 17 17 18 16 13 11 13 17 20 19 18 20 20 22 19 20 18 16 15 14 14 14 13 13 14 13 12 11 9 8 6 4 4 3 2
4 3 2 5 10 4 8 5 5 6 7 9 13 15 17 17 17 16 16 16 12 15 19 20 18 19 19 17 17 17 16 16 16 14 14 15 15 15 14 13 12 11 10 8 6 5 4 4 5
Wind_Direction
138 139 150 209 235 251 252 183 130 186 200 211 163 178 199 172 185 87 34 160 156 152 152 162 165 158 152 144 134 128 123 122 124 127 126 125 122 115 107 101 99 101 98 92 87 76 60 46 41
147 142 174 127 259 251 158 259 214 180 148 149 189 208 194 213 155 117 136 161 160 150 152 161 163 157 151 144 137 133 133 132 130 127 124 121 117 110 106 102 101 100 92 83 71 61 52 37 33
128 40 247 203 191 241 263 206 257 210 173 160 172 250 184 173 162 165 152 157 153 156 154 154 158 155 149 145 141 140 139 137 133 127 121 115 110 106 104 102 99 92 79 63 51 46 45 32 20
157 152 118 248 242 242 247 108 228 196 186 197 186 190 157 3 194 161 147 152 151 156 160 146 150 154 153 149 146 143 142 139 134 130 123 118 113 108 104 98 91 81 61 41 33 31 32 28 13
49 189 180 240 252 265 256 268 219 198 214 205 182 167 133 70 114 134 149 153 156 155 162 156 149 153 155 152 147 145 148 143 140 135 131 128 119 106 97 86 72 59 48 35 26 20 14 13 351
168 268 205 231 239 242 267 249 210 215 218 172 203 170 151 132 153 144 152 153 156 150 157 158 148 148 153 150 148 147 147 146 144 141 136 129 121 113 101 81 62 51 40 30 18 6 353 348 338
253 212 223 224 245 262 251 137 227 210 153 184 165 216 132 184 167 146 150 149 152 148 156 164 164 156 149 148 151 151 148 145 145 141 135 131 127 116 99 79 64 52 30 16 2 351 345 341 351
188 245 188 213 222 248 230 213 279 215 268 28 242 223 180 182 159 150 143 149 154 149 154 166 171 167 164 160 156 153 147 144 143 139 139 132 129 122 115 139 89 49 22 3 10 13 22 26 27
162 228 227 217 204 227 167 191 73 59 274 254 220 183 64 144 147 148 133 136 147 150 160 170 180 171 165 160 157 149 152 146 141 145 137 152 140 141 141 65 62 58 52 56 52 40 34 11 59
214 223 223 248 221 232 212 217 274 301 300 287 274 96 127 145 157 157 151 149 164 166 172 175 184 174 167 160 159 162 159 162 158 155 153 152 142 125 93 78 83 73 63 53 43 32 20 359 9
180 232 222 252 244 278 252 268 214 243 290 241 293 182 150 155 165 167 159 157 174 170 169 184 182 189 176 164 161 162 162 157 151 150 157 144 149 133 101 100 90 69 47 29 24 20 22 12 360
224 235 232 249 234 283 284 317 273 199 246 305 305 177 164 174 178 173 168 166 167 178 183 184 189 188 184 168 169 161 161 160 155 145 141 135 128 117 101 85 74 55 33 33 22 17 13 4 358
232 231 215 245 275 291 301 285 276 268 266 309 283 168 180 180 190 190 175 170 160 178 183 189 191 188 183 175 162 164 158 162 142 143 135 136 127 119 109 84 69 55 46 36 29 15 11 1 356
253 224 246 256 254 259 269 275 294 279 246 226 193 197 192 188 187 182 183 173 169 179 184 184 195 189 184 177 168 161 162 144 147 145 144 136 129 127 117 106 85 71 51 45 30 21 12 5 349
286 261 251 233 229 229 225 257 243 259 270 228 219 219 204 202 191 198 181 178 170 181 183 181 186 188 186 177 173 166 160 152 148 144 147 139 136 126 120 110 104 85 65 61 43 33 27 5 359
258 234 240 195 186 224 199 247 247 258 268 261 236 233 218 203 202 202 195 177 174 169 180 180 184 186 186 180 175 167 159 156 147 147 144 140 134 131 127 124 103 93 82 64 45 27 21 13 12
218 243 220 253 196 206 205 243 230 295 271 240 246 224 211 221 216 207 196 189 175 164 174 179 184 188 188 180 171 161 155 161 149 147 147 146 140 135 127 116 109 95 78 64 47 49 17 16 17
233 229 233 247 150 230 218 269 290 295 289 241 222 198 185 203 210 206 200 187 177 168 158 174 175 186 182 171 159 150 156 160 158 159 154 148 139 137 127 114 112 104 90 78 73 56 40 19 12
255 263 263 239 247 283 274 264 274 279 288 273 233 215 205 195 219 206 196 185 177 167 166 178 177 178 171 174 168 165 175 170 171 168 154 152 148 136 130 123 122 114 93 69 63 78 46 35 18
234 254 252 278 260 220 275 257 263 266 263 263 257 236 215 216 198 200 194 184 182 179 177 180 176 179 181 176 176 176 168 182 171 163 164 161 149 144 142 139 135 123 107 81 62 55 69 53 29
223 232 238 260 293 245 269 270 240 250 232 249 256 253 242 223 209 202 197 190 183 183 186 176 183 180 181 174 156 134 131 143 165 169 168 168 156 155 148 143 136 126 108 90 75 58 49 63 65
239 211 234 254 259 273 236 277 249 257 237 235 239 249 239 228 215 206 203 198 190 196 182 183 179 174 180 173 181 183 180 176 182 172 174 170 168 161 152 146 144 131 114 99 86 71 58 38 55
247 212 216 240 248 254 231 259 263 237 249 243 242 246 253 241 214 208 200 198 201 186 184 182 179 181 179 181 183 183 185 181 166 167 169 174 170 165 155 153 154 145 128 107 101 96 70 71 61
196 181 109 137 219 243 244 245 263 247 251 257 246 251 242 241 230 222 209 203 199 191 190 189 187 186 178 183 183 187 181 172 169 171 173 177 171 168 167 163 162 150 133 125 114 108 98 84 85
196 184 226 222 210 246 222 232 258 299 350 348 328 330 346 325 257 236 220 212 202 193 196 192 190 185 181 185 184 185 182 178 173 169 177 174 174 176 173 170 165 159 149 141 131 122 119 120 98
244 221 216 232 239 253 161 240 241 41 25 18 10 356 356 352 331 292 248 227 211 201 194 190 188 189 183 185 187 184 180 182 180 179 174 181 180 177 166 172 166 160 155 149 142 133 127 126 101
136 225 348 248 278 238 235 240 179 43 30 23 21 14 2 352 342 323 303 258 227 210 200 197 188 190 190 191 182 184 178 181 182 177 175 177 173 164 167 166 164 165 161 161 156 145 144 139 122
360 22 203 218 229 234 217 239 254 12 9 4 13 10 360 353 347 336 318 293 258 222 209 202 195 194 189 187 189 194 180 176 173 169 177 176 170 165 163 167 169 168 167 167 172 161 143 157 167
295 209 317 284 274 252 244 207 23 8 6 0 1 2 357 350 347 342 331 306 273 248 217 205 200 195 191 181 185 185 179 178 167 169 176 176 166 170 170 173 172 174 170 169 175 165 154 205 247
54 63 50 257 208 265 288 179 68 41 14 6 7 0 356 348 347 349 341 327 305 243 227 209 200 196 197 191 181 175 166 174 168 168 177 171 171 177 175 174 177 176 171 172 179 182 192 229 246